Regional Weather Roundup
Issued by NWS

Home | Current Version | Previous Version | Text Only | Print | Product List | Glossary On
Versions: 1 2 3 4 5 6 7 8 9 10 11 12 13 14 15 16 17 18 19 20 21 22 23 24 25 26 27 28 29 30 31 32 33 34 35 36 37 38 39 40 41 42 43 44 45 46 47 48 49 50
000
ASUS46 KSTO 171404
RWRCA

NORTHERN AND CENTRAL CA REGIONAL WEATHER ROUNDUP
NATIONAL WEATHER SERVICE SACRAMENTO CA
700 AM PDT THU APR 17 2014

NOTE: FAIR INDICATES FEW OR NO CLOUDS BELOW 12,000 FEET WITH NO
SIGNIFICANT WEATHER AND/OR OBSTRUCTIONS TO VISIBILITY.

CAZ001-003-171500-
NORTHWEST AREA

CITY           SKY/WX    TMP DP  RH WIND       PRES   REMARKS
CRESCENT CITY  CLOUDY    49  48  97 N3        29.96R
UKIAH          CLEAR     47  44  90 E3        29.85R
$$

CAZ006-505>513-171500-
BAY AREA

CITY           SKY/WX    TMP DP  RH WIND       PRES   REMARKS
SANTA ROSA     PTCLDY    46  45  96 CALM      29.80R
SAN RAFAEL     N/A       53  MM  MM MISG
NAPA           CLEAR     47  46  97 CALM      29.81R
CONCORD        CLEAR     51  47  86 SE3       29.81R
OAKLAND CITY   N/A       56  MM  MM MISG
OAKLAND        PTCLDY    52  48  86 CALM      29.82R
SAN FRAN CITY  N/A       53  MM  83 MISG
SAN FRAN ARPT  PTCLDY    54  50  86 W7        29.82R
LIVERMORE      CLEAR     52  45  77 CALM      29.80R
HAYWARD        CLEAR     51  47  86 CALM      29.82R
REDWOOD CITY   N/A       MM  MM  MM MISG
MOFFETT ARPT   CLEAR     55  49  80 CALM      29.83R
SAN JOSE ARPT  MOCLDY    53  48  83 CALM      29.82R
$$
CAZ034-037-514>518-171500-
CENTRAL COAST

CITY           SKY/WX    TMP DP  RH WIND       PRES   REMARKS
WATSONVILLE    FOG       51  49  92 CALM      29.84R VSB 1
SALINAS        PTCLDY    48  45  89 CALM      29.83R FOG
MONTEREY       CLOUDY    52  49  89 SW5       29.83S FOG
SAN LUIS OBISP MOCLDY    52  49  89 CALM      29.86R FOG
SANTA MARIA    CLOUDY    54  51  90 S8        29.86R FOG
$$
CAZ015-016-171500-
NORTHERN SACRAMENTO VALLEY

CITY           SKY/WX    TMP DP  RH WIND       PRES   REMARKS
REDDING        CLEAR     51  46  83 CALM      29.76F
RED BLUFF      CLEAR     53  46  77 N3        29.78S
OROVILLE       CLEAR     57  47  69 SE5       29.79R
$$
CAZ016>018-171500-
SOUTHERN SACRAMENTO VALLEY

CITY           SKY/WX    TMP DP  RH WIND       PRES   REMARKS
AUBURN         CLEAR     57  46  67 E6        29.81R
BEALE AFB      CLEAR     53  49  86 E5        29.78R
LINCOLN        FAIR      50  45  81 CALM      29.78R
MARYSVILLE     CLEAR     52  48  86 E5        29.78R
SAC INTL ARPT  CLEAR     54  49  83 S5        29.77R
MATHER AIRPORT PTCLDY    50  50 100 E6        29.78S
DOWNTOWN SAC   N/A       55  MM  MM MISG
SAC EXEC ARPT  CLEAR     53  49  86 CALM      29.78R
VACAVILLE      CLEAR     52  48  86 CALM      29.79R
TRAVIS AFB     CLEAR     53  53 100 SW8       29.77R
$$
CAZ019>021-171500-
SAN JOAQUIN VALLEY

CITY           SKY/WX    TMP DP  RH WIND       PRES   REMARKS
STOCKTON       CLEAR     52  48  86 SE3       29.78R
MODESTO        CLEAR     55  50  83 CALM      29.78S
MERCED         CLEAR     55  47  74 W3        29.78S
LEMOORE        MOCLDY    60  38  43 CALM      29.81R
FRESNO         MOCLDY    60  46  59 E5        29.81R
HANFORD        PTCLDY    54  46  74 CALM      29.81R
PORTERVILLE    CLEAR     59  45  58 CALM      29.82R
BAKERSFIELD    PTCLDY    63  43  48 SE3       29.81R
$$
CAZ011-012-071-171500-
NORTHERN MOUNTAINS

CITY           SKY/WX    TMP DP  RH WIND       PRES   REMARKS
YREKA          CLEAR     39  35  86 CALM      29.91S
MOUNT SHASTA   CLEAR     38  33  82 CALM      29.88F
ALTURAS        CLEAR     32  28  85 CALM      29.92F
$$
CAZ011-012-071-171500-
SIERRA NEVADA MTNS

CITY           SKY/WX    TMP DP  RH WIND       PRES   REMARKS
BLUE CANYON    CLEAR     54  33  45 SE7       29.95S
TRUCKEE        FOG       28  28 100 CALM      30.00S VSB 1/2
TAHOE VLY ARPT CLEAR     32  27  81 CALM      30.00S
MAMMOTH LAKES  FAIR      32  25  74 CALM      30.07R
$$




USA.gov is the U.S. government's official web portal to all federal, state and local government web resources and services.